Time,TemperatureF,DewpointF,PressureIn,WindDirection,WindDirectionDegrees,WindSpeedMPH,WindSpeedGustMPH,Humidity,HourlyPrecipIn,Conditions,Clouds,dailyrainin,SoftwareType,DateUTC
2013-05-15 00:03:00,57.0,42.0,-100.00,SW,215,1.0,2.0,57,0.00,,,-99.99,,2013-05-15 04:03:00,
2013-05-15 00:12:00,56.0,44.0,-100.00,WSW,244,1.0,4.0,63,0.00,,,-99.99,,2013-05-15 04:12:00,
2013-05-15 00:24:00,56.0,44.0,-100.00,WSW,244,1.0,4.0,63,0.00,,,-99.99,,2013-05-15 04:24:00,
2013-05-15 00:33:00,55.0,43.0,-100.00,SW,216,0.0,2.0,63,0.00,,,-99.99,,2013-05-15 04:33:00,
2013-05-15 00:42:00,55.0,43.0,-100.00,SW,216,0.0,2.0,63,0.00,,,-99.99,,2013-05-15 04:42:00,
2013-05-15 00:52:00,56.0,42.0,-100.00,NW,318,0.0,1.0,60,0.00,,,-99.99,,2013-05-15 04:52:00,
2013-05-15 01:02:00,56.0,42.0,-100.00,NW,318,0.0,1.0,60,0.00,,,-99.99,,2013-05-15 05:02:00,
2013-05-15 01:12:00,56.0,43.0,-100.00,West,274,0.0,1.0,63,0.00,,,-99.99,,2013-05-15 05:12:00,
2013-05-15 01:22:00,56.0,43.0,-100.00,West,274,0.0,1.0,63,0.00,,,-99.99,,2013-05-15 05:22:00,
2013-05-15 01:32:00,55.0,43.0,-100.00,WSW,246,0.0,0.0,62,0.00,,,-99.99,,2013-05-15 05:32:00,
2013-05-15 01:42:00,55.0,43.0,-100.00,WSW,246,0.0,0.0,62,0.00,,,-99.99,,2013-05-15 05:42:00,
2013-05-15 01:52:00,56.0,43.0,-100.00,SW,224,1.0,2.0,62,0.00,,,-99.99,,2013-05-15 05:52:00,
2013-05-15 02:02:00,57.0,43.0,-100.00,SW,227,2.0,5.0,60,0.00,,,-99.99,,2013-05-15 06:02:00,
2013-05-15 02:11:00,57.0,43.0,-100.00,SW,227,2.0,5.0,60,0.00,,,-99.99,,2013-05-15 06:11:00,
2013-05-15 02:20:00,58.0,43.0,-100.00,West,277,2.0,4.0,56,0.00,,,-99.99,,2013-05-15 06:20:00,
2013-05-15 02:22:00,57.0,43.0,-100.00,SW,227,2.0,5.0,60,0.00,,,-99.99,,2013-05-15 06:22:00,
2013-05-15 02:32:00,58.0,43.0,-100.00,WSW,244,3.0,5.0,56,0.00,,,-99.99,,2013-05-15 06:32:00,
2013-05-15 02:42:00,58.0,43.0,-100.00,WSW,244,3.0,5.0,56,0.00,,,-99.99,,2013-05-15 06:42:00,
2013-05-15 02:52:00,58.0,43.0,-100.00,West,277,2.0,4.0,56,0.00,,,-99.99,,2013-05-15 06:52:00,
2013-05-15 03:01:00,58.0,43.0,-100.00,West,277,2.0,4.0,56,0.00,,,-99.99,,2013-05-15 07:01:00,
2013-05-15 03:11:00,58.0,43.0,-100.00,West,277,2.0,4.0,56,0.00,,,-99.99,,2013-05-15 07:11:00,
2013-05-15 03:32:00,59.0,42.0,-100.00,West,271,4.0,8.0,54,0.00,,,-99.99,,2013-05-15 07:32:00,
2013-05-15 03:42:00,59.0,42.0,-100.00,West,271,4.0,8.0,54,0.00,,,-99.99,,2013-05-15 07:42:00,
2013-05-15 03:52:00,58.0,42.0,-100.00,West,277,4.0,6.0,55,0.00,,,-99.99,,2013-05-15 07:52:00,
2013-05-15 04:02:00,58.0,42.0,-100.00,West,277,4.0,6.0,55,0.00,,,-99.99,,2013-05-15 08:02:00,
2013-05-15 04:12:00,58.0,43.0,-100.00,WNW,284,6.0,9.0,56,0.00,,,-99.99,,2013-05-15 08:12:00,
2013-05-15 04:21:00,58.0,43.0,-100.00,WNW,284,6.0,9.0,56,0.00,,,-99.99,,2013-05-15 08:21:00,
2013-05-15 04:32:00,58.0,42.0,-100.00,West,270,4.0,8.0,55,0.00,,,-99.99,,2013-05-15 08:32:00,
2013-05-15 04:42:00,58.0,42.0,-100.00,West,270,4.0,8.0,55,0.00,,,-99.99,,2013-05-15 08:42:00,
2013-05-15 04:53:00,57.0,42.0,-100.00,WNW,285,4.0,6.0,57,0.00,,,-99.99,,2013-05-15 08:53:00,
2013-05-15 05:01:00,57.0,42.0,-100.00,WNW,285,4.0,6.0,57,0.00,,,-99.99,,2013-05-15 09:01:00,
2013-05-15 05:12:00,57.0,43.0,-100.00,West,281,4.0,7.0,59,0.00,,,-99.99,,2013-05-15 09:12:00,
2013-05-15 05:22:00,57.0,43.0,-100.00,West,281,4.0,7.0,59,0.00,,,-99.99,,2013-05-15 09:22:00,
2013-05-15 05:33:00,56.0,43.0,-100.00,WNW,295,2.0,4.0,61,0.00,,,-99.99,,2013-05-15 09:33:00,
2013-05-15 05:42:00,56.0,43.0,-100.00,WNW,295,2.0,4.0,61,0.00,,,-99.99,,2013-05-15 09:42:00,
2013-05-15 05:53:00,56.0,43.0,-100.00,West,277,2.0,4.0,61,0.00,,,-99.99,,2013-05-15 09:53:00,
2013-05-15 06:02:00,56.0,43.0,-100.00,West,277,2.0,4.0,61,0.00,,,-99.99,,2013-05-15 10:02:00,
2013-05-15 06:13:00,56.0,43.0,-100.00,WSW,257,2.0,4.0,62,0.00,,,-99.99,,2013-05-15 10:13:00,
2013-05-15 06:23:00,55.0,43.0,-100.00,West,260,3.0,4.0,63,0.00,,,-99.99,,2013-05-15 10:23:00,
2013-05-15 06:32:00,55.0,43.0,-100.00,West,260,3.0,4.0,63,0.00,,,-99.99,,2013-05-15 10:32:00,
2013-05-15 06:42:00,55.0,43.0,-100.00,West,260,3.0,4.0,63,0.00,,,-99.99,,2013-05-15 10:42:00,
2013-05-15 06:52:00,55.0,43.0,-100.00,WNW,291,3.0,4.0,64,0.00,,,-99.99,,2013-05-15 10:52:00,
2013-05-15 07:19:00,56.0,44.0,-100.00,NW,304,4.0,7.0,64,0.00,,,-99.99,,2013-05-15 11:19:00,
2013-05-15 07:28:00,56.0,44.0,-100.00,NW,304,4.0,7.0,64,0.00,,,-99.99,,2013-05-15 11:28:00,
2013-05-15 07:38:00,56.0,44.0,-100.00,WNW,299,6.0,8.0,64,0.00,,,-99.99,,2013-05-15 11:38:00,
2013-05-15 08:01:00,57.0,44.0,-100.00,NW,304,5.0,7.0,63,0.00,,,-99.99,,2013-05-15 12:01:00,
2013-05-15 08:10:00,57.0,44.0,-100.00,NW,304,5.0,7.0,63,0.00,,,-99.99,,2013-05-15 12:10:00,
2013-05-15 08:16:00,58.0,46.0,-100.00,NW,311,6.0,8.0,64,0.00,,,-99.99,,2013-05-15 12:16:00,
2013-05-15 08:29:00,58.0,46.0,-100.00,NW,311,6.0,8.0,64,0.00,,,-99.99,,2013-05-15 12:29:00,
2013-05-15 08:37:00,59.0,46.0,-100.00,WSW,257,4.0,7.0,63,0.00,,,-99.99,,2013-05-15 12:37:00,
2013-05-15 08:48:00,59.0,46.0,-100.00,WSW,257,4.0,7.0,63,0.00,,,-99.99,,2013-05-15 12:48:00,
2013-05-15 09:19:00,62.0,48.0,-100.00,West,264,6.0,10.0,60,0.00,,,-99.99,,2013-05-15 13:19:00,
2013-05-15 09:27:00,62.0,48.0,-100.00,West,264,6.0,10.0,60,0.00,,,-99.99,,2013-05-15 13:27:00,
2013-05-15 09:36:00,64.0,49.0,-100.00,West,277,4.0,7.0,58,0.00,,,-99.99,,2013-05-15 13:36:00,
2013-05-15 09:47:00,64.0,49.0,-100.00,West,277,4.0,7.0,58,0.00,,,-99.99,,2013-05-15 13:47:00,
2013-05-15 10:14:00,69.0,51.0,-100.00,WNW,302,5.0,7.0,53,0.00,,,-99.99,,2013-05-15 14:14:00,
2013-05-15 10:27:00,69.0,51.0,-100.00,WNW,302,5.0,7.0,53,0.00,,,-99.99,,2013-05-15 14:27:00,
2013-05-15 10:38:00,71.0,53.0,-100.00,NNW,333,4.0,6.0,52,0.00,,,-99.99,,2013-05-15 14:38:00,
2013-05-15 10:48:00,71.0,53.0,-100.00,NNW,333,4.0,6.0,52,0.00,,,-99.99,,2013-05-15 14:48:00,
2013-05-15 10:59:00,72.0,54.0,-100.00,West,271,5.0,7.0,54,0.00,,,-99.99,,2013-05-15 14:59:00,
2013-05-15 11:09:00,72.0,54.0,-100.00,West,271,5.0,7.0,54,0.00,,,-99.99,,2013-05-15 15:09:00,
2013-05-15 11:16:00,74.0,54.0,-100.00,WNW,284,6.0,9.0,50,0.00,,,-99.99,,2013-05-15 15:16:00,
2013-05-15 11:29:00,74.0,54.0,-100.00,WNW,284,6.0,9.0,50,0.00,,,-99.99,,2013-05-15 15:29:00,
2013-05-15 11:38:00,76.0,56.0,-100.00,NW,322,5.0,9.0,49,0.00,,,-99.99,,2013-05-15 15:38:00,
2013-05-15 11:48:00,76.0,56.0,-100.00,NW,322,5.0,9.0,49,0.00,,,-99.99,,2013-05-15 15:48:00,
2013-05-15 12:02:00,75.0,56.0,-100.00,WNW,296,6.0,9.0,52,0.00,,,-99.99,,2013-05-15 16:02:00,
2013-05-15 12:10:00,75.0,56.0,-100.00,WNW,296,6.0,9.0,52,0.00,,,-99.99,,2013-05-15 16:10:00,
2013-05-15 12:24:00,77.0,56.0,-100.00,West,274,6.0,9.0,48,0.00,,,-99.99,,2013-05-15 16:24:00,
2013-05-15 12:38:00,80.0,56.0,-100.00,West,267,7.0,14.0,45,0.00,,,-99.99,,2013-05-15 16:38:00,
2013-05-15 12:48:00,80.0,56.0,-100.00,West,267,7.0,14.0,45,0.00,,,-99.99,,2013-05-15 16:48:00,
2013-05-15 13:01:00,80.0,56.0,-100.00,WSW,257,10.0,15.0,45,0.00,,,-99.99,,2013-05-15 17:01:00,
2013-05-15 13:11:00,80.0,56.0,-100.00,WSW,257,10.0,15.0,45,0.00,,,-99.99,,2013-05-15 17:11:00,
2013-05-15 13:21:00,80.0,56.0,-100.00,West,271,10.0,12.0,45,0.00,,,-99.99,,2013-05-15 17:21:00,
2013-05-15 13:28:00,80.0,56.0,-100.00,West,267,9.0,14.0,44,0.00,,,-99.99,,2013-05-15 17:28:00,
2013-05-15 13:38:00,80.0,56.0,-100.00,West,267,9.0,14.0,44,0.00,,,-99.99,,2013-05-15 17:38:00,
2013-05-15 13:59:00,82.0,59.0,-100.00,NW,309,8.0,13.0,46,0.00,,,-99.99,,2013-05-15 17:59:00,
2013-05-15 14:07:00,82.0,56.0,-100.00,West,264,9.0,13.0,41,0.00,,,-99.99,,2013-05-15 18:07:00,
2013-05-15 14:16:00,82.0,56.0,-100.00,West,264,9.0,13.0,41,0.00,,,-99.99,,2013-05-15 18:16:00,
2013-05-15 14:37:00,83.0,56.0,-100.00,West,265,8.0,12.0,40,0.00,,,-99.99,,2013-05-15 18:37:00,
2013-05-15 14:46:00,83.0,56.0,-100.00,West,265,8.0,12.0,40,0.00,,,-99.99,,2013-05-15 18:46:00,
2013-05-15 14:58:00,84.0,56.0,-100.00,West,263,10.0,15.0,38,0.00,,,-99.99,,2013-05-15 18:58:00,
2013-05-15 15:09:00,84.0,56.0,-100.00,West,263,10.0,15.0,38,0.00,,,-99.99,,2013-05-15 19:09:00,
2013-05-15 15:16:00,83.0,56.0,-100.00,West,272,7.0,9.0,39,0.00,,,-99.99,,2013-05-15 19:16:00,
2013-05-15 15:30:00,83.0,56.0,-100.00,West,272,7.0,9.0,39,0.00,,,-99.99,,2013-05-15 19:30:00,
2013-05-15 15:39:00,84.0,58.0,-100.00,West,267,5.0,9.0,42,0.00,,,-99.99,,2013-05-15 19:39:00,
2013-05-15 15:46:00,84.0,58.0,-100.00,West,267,5.0,9.0,42,0.00,,,-99.99,,2013-05-15 19:46:00,
2013-05-15 15:58:00,85.0,57.0,-100.00,West,263,8.0,13.0,38,0.00,,,-99.99,,2013-05-15 19:58:00,
2013-05-15 16:08:00,85.0,57.0,-100.00,West,263,8.0,13.0,38,0.00,,,-99.99,,2013-05-15 20:08:00,
2013-05-15 16:40:00,87.0,57.0,-100.00,West,267,7.0,11.0,35,0.00,,,-99.99,,2013-05-15 20:40:00,
2013-05-15 16:47:00,87.0,57.0,-100.00,West,267,7.0,11.0,35,0.00,,,-99.99,,2013-05-15 20:47:00,
2013-05-15 16:59:00,87.0,57.0,-100.00,West,264,8.0,11.0,37,0.00,,,-99.99,,2013-05-15 20:59:00,
2013-05-15 17:09:00,87.0,57.0,-100.00,West,264,8.0,11.0,37,0.00,,,-99.99,,2013-05-15 21:09:00,
2013-05-15 17:28:00,88.0,56.0,-100.00,WSW,254,7.0,14.0,33,0.00,,,-99.99,,2013-05-15 21:28:00,
2013-05-15 17:41:00,88.0,55.0,-100.00,WSW,250,8.0,12.0,33,0.00,,,-99.99,,2013-05-15 21:41:00,
2013-05-15 17:51:00,88.0,56.0,-100.00,West,263,9.0,15.0,33,0.00,,,-99.99,,2013-05-15 21:51:00,
2013-05-15 18:00:00,88.0,56.0,-100.00,West,263,9.0,15.0,33,0.00,,,-99.99,,2013-05-15 22:00:00,
2013-05-15 18:11:00,88.0,56.0,-100.00,West,263,9.0,15.0,33,0.00,,,-99.99,,2013-05-15 22:11:00,
2013-05-15 18:19:00,87.0,57.0,-100.00,West,263,9.0,15.0,35,0.00,,,-99.99,,2013-05-15 22:19:00,
2013-05-15 18:29:00,87.0,57.0,-100.00,West,263,9.0,15.0,35,0.00,,,-99.99,,2013-05-15 22:29:00,
2013-05-15 18:40:00,87.0,57.0,-100.00,WSW,256,7.0,9.0,35,0.00,,,-99.99,,2013-05-15 22:40:00,
2013-05-15 18:50:00,87.0,57.0,-100.00,WSW,256,7.0,9.0,35,0.00,,,-99.99,,2013-05-15 22:50:00,
2013-05-15 19:00:00,87.0,58.0,-100.00,WSW,256,8.0,14.0,37,0.00,,,-99.99,,2013-05-15 23:00:00,
2013-05-15 19:08:00,87.0,58.0,-100.00,WSW,256,8.0,14.0,37,0.00,,,-99.99,,2013-05-15 23:08:00,
2013-05-15 19:17:00,86.0,57.0,-100.00,WSW,258,6.0,9.0,38,0.00,,,-99.99,,2013-05-15 23:17:00,
2013-05-15 19:39:00,85.0,59.0,-100.00,WSW,254,9.0,14.0,40,0.00,,,-99.99,,2013-05-15 23:39:00,
2013-05-15 19:40:00,83.0,59.0,-100.00,WSW,253,4.0,6.0,44,0.00,,,-99.99,,2013-05-15 23:40:00,
2013-05-15 19:50:00,85.0,59.0,-100.00,WSW,254,9.0,14.0,40,0.00,,,-99.99,,2013-05-15 23:50:00,
2013-05-15 20:01:00,85.0,58.0,-100.00,West,263,6.0,13.0,41,0.00,,,-99.99,,2013-05-16 00:01:00,
2013-05-15 20:08:00,85.0,58.0,-100.00,West,263,6.0,13.0,41,0.00,,,-99.99,,2013-05-16 00:08:00,
2013-05-15 20:18:00,83.0,59.0,-100.00,WSW,253,4.0,6.0,44,0.00,,,-99.99,,2013-05-16 00:18:00,
2013-05-15 20:27:00,83.0,59.0,-100.00,WSW,253,4.0,6.0,44,0.00,,,-99.99,,2013-05-16 00:27:00,
2013-05-15 20:36:00,83.0,59.0,-100.00,WSW,253,4.0,6.0,44,0.00,,,-99.99,,2013-05-16 00:36:00,
2013-05-15 20:40:00,79.0,60.0,-100.00,WSW,240,3.0,5.0,52,0.00,,,-99.99,,2013-05-16 00:40:00,
2013-05-15 20:59:00,80.0,60.0,-100.00,WSW,248,3.0,6.0,52,0.00,,,-99.99,,2013-05-16 00:59:00,
2013-05-15 21:08:00,79.0,60.0,-100.00,WSW,240,3.0,5.0,52,0.00,,,-99.99,,2013-05-16 01:08:00,
2013-05-15 21:18:00,79.0,60.0,-100.00,WSW,240,3.0,5.0,52,0.00,,,-99.99,,2013-05-16 01:18:00,
2013-05-15 21:30:00,79.0,60.0,-100.00,WSW,240,3.0,5.0,52,0.00,,,-99.99,,2013-05-16 01:30:00,
2013-05-15 21:38:00,79.0,60.0,-100.00,WSW,240,3.0,5.0,52,0.00,,,-99.99,,2013-05-16 01:38:00,
2013-05-15 23:07:00,78.0,59.0,-100.00,West,260,7.0,9.0,51,0.00,,,-99.99,,2013-05-16 03:07:00,
2013-05-15 23:17:00,79.0,59.0,-100.00,West,264,7.0,12.0,51,0.00,,,-99.99,,2013-05-16 03:17:00,
2013-05-15 23:20:00,78.0,59.0,-100.00,West,265,8.0,12.0,52,0.00,,,-99.99,,2013-05-16 03:20:00,
2013-05-15 23:27:00,78.0,59.0,-100.00,West,263,4.0,6.0,52,0.00,,,-99.99,,2013-05-16 03:27:00,
2013-05-15 23:39:00,78.0,59.0,-100.00,West,263,4.0,6.0,52,0.00,,,-99.99,,2013-05-16 03:39:00,
2013-05-15 23:46:00,78.0,59.0,-100.00,West,263,4.0,6.0,52,0.00,,,-99.99,,2013-05-16 03:46:00,
2013-05-15 23:58:00,78.0,59.0,-100.00,West,265,8.0,12.0,52,0.00,,,-99.99,,2013-05-16 03:58:00,